Location: Neuvy Saint Sepulchre
(46.5953°N, 1.8122°E)
Time: 11:30:44
(UTC+02:00)

ISS - Pass Details

Date: 05 May 2021
Orbit: 417 x 422 km, 51.6° (Epoch: 15 May)

Event Time Altitude Azimuth Distance (km) Brightness Sun altitude
Exits shadow 03:34:10 38° 77° (ENE) 664 -2.5 -22.9°
Drops below altitude 10° 03:36:23 10° 66° (ENE) 1,506 -0.3 -22.7°
Sets 03:38:30 0° 65° (ENE) 2,374 0.9 -22.5°
